Dewpoint
52 52 53 53 52 52 51 52 51 51 49 44 49 42 27 29 10 25 38 38 30 17 20 26 27 19 21 28 22 26 24 19 19 24 25 21 24 23 19 16 21 22 19 21 19 17 10 15 9 14 14 21 22 26 27 27 27 22 21 20 22 28 11 5 10 15 14 13 15 10 14 17 10 12 11 11 8 11 9 7 8 7 5 4 4 1 1
52 52 52 52 52 51 51 52 51 48 50 47 46 36 26 30 19 20 29 39 35 21 12 18 19 22 26 23 20 28 27 27 26 25 26 22 16 21 21 23 22 16 24 22 19 20 1 15 12 10 14 13 27 28 28 26 23 23 20 5 20 2 9 5 3 1 1 8 6 9 10 13 10 9 12 12 11 11 11 10 9 6 5 6 4 -1 -2
52 52 53 52 52 52 52 53 51 49 46 47 44 27 33 27 31 31 27 28 29 20 26 23 23 21 20 20 18 22 22 26 27 26 23 25 19 20 22 20 22 23 23 20 23 21 7 6 13 8 10 13 28 27 27 26 24 28 28 31 25 12 12 6 -4 -4 -5 -4 -4 -3 1 2 0 12 12 13 8 10 9 6 6 4 5 5 1 1 0
51 52 52 52 51 52 53 52 51 51 48 44 45 39 28 27 9 21 17 24 26 27 27 26 23 21 17 13 13 21 19 21 27 27 25 25 25 21 23 23 17 18 21 21 22 22 19 10 10 8 10 15 24 27 26 27 26 30 30 25 22 12 16 12 8 3 1 3 5 8 12 1 3 5 5 8 11 11 10 10 8 7 7 5 6 6 4
51 52 52 52 52 53 53 52 50 49 49 49 43 32 30 27 21 21 7 30 21 23 26 26 25 19 23 12 14 9 20 22 23 29 21 26 26 27 23 22 13 13 16 17 21 20 17 18 11 8 7 12 15 26 25 27 28 31 28 26 16 10 4 11 12 11 10 7 5 6 7 2 1 4 7 8 10 9 10 8 5 8 7 3 5 4 8
52 52 51 52 52 52 52 52 51 49 48 48 37 20 24 18 16 24 22 20 4 24 14 27 24 23 24 14 22 19 19 21 14 23 23 25 24 20 22 24 20 18 12 18 14 19 16 17 9 12 9 13 17 17 26 25 30 27 23 23 7 2 1 7 3 2 6 7 6 6 6 6 5 6 7 7 10 9 8 9 11 9 6 4 6 9 3
52 51 51 52 52 51 51 52 51 48 47 40 38 18 18 26 24 23 24 15 16 22 18 28 23 22 21 21 21 16 19 21 25 23 23 23 19 19 11 21 23 21 23 21 15 18 5 10 12 9 9 14 14 12 17 23 25 23 17 16 10 6 6 7 6 9 9 8 8 8 7 7 4 4 0 -1 2 10 11 11 11 11 10 11 9 1 -0
51 52 52 52 52 52 52 52 51 51 47 42 31 27 18 15 17 11 25 22 17 17 19 23 25 20 21 15 15 22 22 20 23 25 22 16 21 24 22 23 24 24 25 23 12 14 13 9 10 14 11 14 13 12 13 15 19 21 15 16 16 4 5 14 6 5 7 8 8 7 -1 -0 1 -2 -1 -0 3 8 11 12 10 3 -1 -1 -1 1 3
51 51 51 51 51 51 51 51 49 47 49 32 30 21 29 25 27 20 13 17 13 20 18 19 22 17 17 17 16 24 23 23 24 23 25 23 22 25 15 24 24 25 24 24 21 23 23 22 20 19 16 15 19 10 13 18 15 16 15 14 10 4 6 7 4 3 3 2 1 -0 2 2 2 2 5 9 8 6 6 3 6 1 2 0 2 3 3
50 51 51 51 50 50 50 50 48 48 48 35 29 21 24 31 30 31 21 13 15 16 19 22 24 18 20 26 26 25 24 26 26 20 26 26 28 27 25 23 24 22 22 20 23 26 26 25 25 25 24 22 23 22 22 20 17 16 14 14 8 6 5 6 4 4 2 -1 1 2 1 3 1 2 7 7 7 0 -2 -1 -4 -4 -4 2 1 2 0
49 49 49 49 50 51 51 50 50 49 46 33 25 20 29 22 22 30 26 19 15 18 20 20 22 23 26 27 25 25 25 25 25 13 11 28 28 27 26 25 20 17 18 25 28 27 26 26 25 25 24 23 23 23 24 23 21 21 15 12 13 10 7 7 5 -1 3 2 3 0 -1 -3 -2 7 12 7 1 -3 -6 -5 -5 -4 -3 -1 -0 -0 4
48 48 48 48 49 49 49 48 48 48 45 43 29 23 28 34 38 30 27 22 8 18 22 15 20 24 25 23 27 25 24 25 26 26 16 25 27 27 27 26 17 17 24 25 25 26 27 27 27 26 25 25 25 25 24 22 19 22 18 12 11 11 12 9 1 1 2 3 2 0 -4 -3 4 10 10 2 -1 -3 -5 -5 -3 -0 1 1 3 5 7
47 47 47 48 48 48 49 49 47 43 42 42 31 26 28 32 38 29 24 22 14 18 16 13 18 20 24 26 23 22 26 26 26 26 26 25 25 27 28 27 24 26 26 26 26 25 19 15 20 24 24 25 24 25 24 22 20 20 19 16 9 5 5 4 6 4 4 -1 -3 -5 -2 -1 10 4 -1 4 0 -4 -2 0 2 1 0 4 5 6 7
47 47 47 46 46 46 47 48 48 47 44 33 27 28 31 36 29 26 25 23 18 18 16 18 16 19 22 24 22 24 24 23 22 22 23 27 26 27 29 30 29 29 28 26 24 20 14 14 10 11 11 22 18 12 19 23 21 20 19 19 16 13 7 2 1 1 -4 -1 -0 1 1 -1 7 5 5 -5 -5 -4 -1 0 1 1 2 5 5 5 6
47 47 47 47 47 46 46 46 45 45 44 42 38 37 38 35 37 36 28 24 22 17 20 12 16 20 22 22 25 20 19 20 17 19 25 27 28 29 29 29 28 28 26 23 19 17 11 10 6 7 7 8 4 4 17 14 18 20 19 16 15 10 3 5 2 2 0 -0 2 1 0 -1 1 2 9 3 -3 -1 -1 1 2 2 4 5 6 7 8
46 46 46 46 45 45 46 47 48 46 44 41 36 37 38 37 34 36 24 24 23 15 23 31 30 26 23 24 25 15 13 20 19 20 19 24 27 26 28 27 27 27 25 23 20 12 10 6 3 5 3 2 3 2 2 14 12 16 15 16 14 14 6 4 6 4 3 2 -0 -1 -0 2 2 -1 -1 8 5 1 -0 1 1 3 5 6 7 7 8
46 45 45 45 45 45 45 45 46 48 47 45 36 35 35 39 39 33 25 28 29 25 28 28 30 31 20 19 24 23 22 16 15 11 14 16 24 28 26 27 26 27 26 21 19 14 14 10 8 5 7 9 2 0 3 3 3 4 14 15 14 10 7 6 6 -1 5 4 1 -1 -1 0 1 1 -1 -1 1 5 3 -0 -1 6 5 6 7 7 8
46 46 46 45 45 44 45 45 44 44 43 42 33 32 32 36 37 39 30 28 28 25 28 29 31 27 26 25 21 24 27 24 23 22 15 19 23 26 27 27 24 27 27 13 15 12 9 9 5 4 5 11 5 4 1 4 2 3 5 6 3 5 6 4 6 4 7 10 6 4 3 6 5 1 0 3 3 3 3 -1 4 5 5 6 7 7 8
46 46 46 46 46 46 45 45 46 44 45 45 38 32 30 34 37 36 31 29 27 22 28 29 30 31 32 32 31 29 28 18 21 18 20 21 18 23 27 26 26 16 24 13 14 10 9 6 7 6 4 10 9 3 6 4 3 5 7 7 7 4 8 7 1 2 2 6 3 3 6 8 5 3 3 6 5 2 2 5 4 4 5 6 7 6 8
45 45 45 46 46 46 46 46 44 43 42 43 35 27 29 33 35 37 28 28 27 29 28 29 30 29 31 32 28 28 27 23 23 20 15 7 21 25 22 17 24 20 19 16 10 11 8 6 8 8 7 7 9 9 5 8 10 8 8 9 5 4 1 3 2 6 7 2 3 2 -0 7 -0 0 3 4 4 5 3 2 4 6 5 5 5 7 9
45 45 45 45 45 46 46 46 46 46 43 43 37 27 26 31 32 32 31 27 25 22 22 29 30 30 32 31 32 33 30 15 22 16 19 17 23 21 10 6 14 16 14 13 7 9 7 8 8 6 11 7 8 8 6 5 6 12 10 5 6 8 2 3 3 7 2 3 2 2 5 3 4 1 4 4 5 4 3 4 2 4 5 4 6 8 9
45 45 45 45 44 45 45 45 46 46 46 44 38 27 26 31 32 32 33 32 28 27 28 30 31 32 33 33 33 34 33 32 32 31 23 19 25 17 18 21 22 20 20 17 16 14 17 14 12 11 9 12 13 7 9 7 6 9 12 10 7 11 5 7 5 6 7 3 5 5 5 4 4 5 6 6 6 5 6 5 4 4 4 6 7 8 9
44 44 45 45 45 45 44 44 44 44 44 44 37 28 27 28 30 30 27 28 31 32 33 32 33 34 35 35 35 34 34 35 35 34 32 27 22 21 23 23 21 25 25 23 16 16 17 13 11 12 10 11 8 8 8 6 5 7 8 9 12 7 7 5 3 7 8 8 8 10 6 4 6 7 8 6 6 5 6 6 5 5 6 7 8 9 10
43 43 44 44 44 44 44 44 44 44 43 42 36 28 31 33 33 32 27 29 28 27 26 29 28 25 26 29 33 33 32 33 34 33 33 32 22 19 25 27 26 25 26 25 23 16 16 15 15 11 7 13 8 8 5 7 4 10 7 10 7 5 3 3 2 5 2 3 6 4 4 6 7 6 7 7 7 7 7 6 6 6 7 8 9 9 9
43 43 43 43 43 43 43 42 43 43 44 42 38 37 35 34 35 34 26 21 22 26 18 19 26 27 33 33 33 33 33 34 34 32 34 33 32 24 21 29 29 22 21 25 24 22 18 14 16 13 10 16 10 11 14 8 11 9 10 11 8 10 7 1 2 1 2 3 5 7 6 6 7 7 7 7 8 8 8 7 7 7 8 7 8 8 8
44 44 43 42 43 43 43 43 42 41 40 40 37 31 31 31 35 36 34 29 28 25 22 18 20 32 30 32 31 33 35 33 33 33 33 33 33 32 30 29 28 28 27 27 21 21 20 17 16 14 11 14 16 11 11 11 11 11 9 12 9 8 6 5 4 3 5 8 7 6 5 6 7 7 8 9 9 9 8 7 7 7 7 7 8 9 9
44 44 44 45 45 44 43 43 43 42 40 38 32 30 31 32 36 37 31 29 26 16 26 21 22 29 31 29 33 35 35 34 33 33 33 33 33 34 32 30 29 26 26 24 22 19 19 16 14 14 15 14 10 10 11 12 12 9 8 12 8 8 10 6 8 8 7 6 4 5 5 5 6 7 8 9 10 9 7 7 7 8 8 9 9 9 10
43 43 43 44 45 46 46 44 44 45 42 38 35 32 30 28 32 36 36 37 30 23 23 22 21 25 29 31 34 33 32 31 30 31 32 33 33 32 32 29 28 25 23 21 20 19 18 17 17 15 13 12 14 14 11 11 11 10 9 7 9 4 5 6 7 6 5 5 5 7 7 7 8 9 10 10 10 8 8 8 9 9 9 9 9 9 8
43 42 43 43 43 45 46 46 46 43 44 43 37 37 34 34 30 31 36 36 30 27 28 27 26 24 18 26 30 29 30 30 29 28 29 30 31 31 29 28 28 25 21 21 21 18 17 17 18 14 14 18 13 11 11 10 9 9 10 11 10 9 10 7 6 7 6 7 8 9 9 8 9 10 10 10 10 10 10 9 10 10 10 10 9 8 8
43 43 42 42 42 43 44 45 46 44 43 38 37 30 27 23 33 30 34 37 32 28 27 25 18 15 26 30 29 30 29 30 29 30 30 28 28 27 28 27 25 26 22 21 18 18 20 18 19 21 20 21 14 12 11 11 9 13 11 10 11 10 9 13 12 9 7 9 10 10 10 11 11 11 12 12 12 11 10 10 11 12 11 11 9 8 8
43 43 43 43 42 40 39 39 41 42 43 38 30 23 23 13 16 35 36 35 34 30 26 26 19 22 22 27 27 25 28 29 27 27 27 27 27 26 25 24 24 25 22 21 19 19 21 18 18 19 20 23 19 12 11 11 9 8 14 11 10 10 10 10 13 13 12 11 12 12 12 12 13 13 13 12 12 11 11 13 13 15 13 12 9 8 7
44 43 43 43 43 42 40 38 36 32 19 17 18 19 21 17 22 34 37 37 34 28 27 23 16 16 18 23 25 24 27 28 28 28 25 27 21 25 24 25 22 26 30 18 20 19 17 21 18 17 16 22 21 12 9 9 9 9 11 10 11 13 13 12 11 11 12 13 12 13 12 12 13 13 12 13 13 13 14 14 14 13 13 10 9 8 7
46 45 44 44 43 43 42 40 37 30 21 27 36 40 39 40 40 39 38 35 24 21 24 24 8 11 16 14 19 22 27 25 23 21 19 22 16 21 20 24 24 23 31 22 16 15 19 19 20 14 18 14 14 12 6 6 9 10 9 12 13 13 11 11 11 12 12 13 13 12 12 12 13 14 14 14 14 15 16 16 15 12 10 8 7 6 6
46 46 45 45 45 43 44 43 41 42 40 29 20 20 28 40 37 39 37 30 23 23 24 20 13 14 15 18 17 20 22 17 17 19 15 22 18 20 18 20 21 18 20 18 19 21 21 19 14 14 14 11 15 8 6 11 11 9 10 11 12 12 12 11 11 11 12 13 13 14 14 14 15 15 15 16 16 16 17 17 13 10 8 7 6 5 6
46 46 46 45 43 45 46 45 38 36 30 32 29 30 34 39 40 41 36 23 18 16 18 16 19 16 17 18 16 20 22 19 15 17 13 18 18 15 17 16 19 15 15 23 20 19 16 16 19 12 11 11 9 7 9 9 8 9 10 11 12 12 10 10 11 12 13 13 14 14 15 15 16 16 16 16 16 16 15 14 11 9 6 5 5 5 5
46 44 45 42 44 41 34 32 32 29 23 19 19 32 40 40 39 33 33 28 24 20 19 14 19 14 12 9 10 16 23 18 18 17 17 16 20 18 17 15 15 18 19 16 14 16 12 17 14 12 11 9 7 10 11 9 9 10 11 11 13 12 11 11 12 13 14 14 15 15 15 16 16 16 17 16 15 14 13 11 9 7 6 5 5 5 5
45 44 42 40 37 32 25 19 31 26 17 21 31 40 39 39 35 31 26 28 26 27 24 17 17 11 13 10 14 19 18 13 19 16 16 16 15 17 15 16 15 20 13 12 10 9 14 19 11 10 9 5 6 13 12 12 12 12 11 13 14 14 13 13 14 14 14 15 15 16 16 16 16 16 15 14 14 13 10 9 7 6 5 5 5 5 4
41 41 36 31 27 23 20 22 21 29 38 34 38 27 28 31 19 22 24 22 17 28 20 22 14 13 18 16 14 22 17 14 19 15 16 16 18 13 14 16 14 18 6 8 10 16 12 10 11 6 6 15 16 15 13 13 14 15 14 14 14 14 14 14 14 14 14 14 15 16 16 16 16 15 13 14 13 9 8 7 6 6 5 5 5 5 4
36 34 29 28 25 16 17 19 35 34 35 35 31 24 20 19 21 13 9 15 18 18 17 19 14 18 16 13 17 25 16 11 13 12 11 16 11 10 13 9 12 10 7 6 9 13 6 8 6 4 5 11 10 9 11 12 13 14 14 13 15 15 15 14 15 15 15 15 16 17 18 17 15 14 16 14 11 9 8 6 5 5 5 5 4 4 3
29 20 21 25 18 19 31 36 37 29 30 18 21 22 10 16 20 6 15 12 13 15 17 15 15 18 16 12 12 14 25 15 11 11 14 17 23 9 12 11 12 6 3 3 7 10 5 3 4 6 7 9 8 8 10 11 11 13 14 14 15 15 15 15 16 16 17 17 18 18 19 18 16 17 15 11 8 7 6 5 5 5 5 3 3 1 -1
29 27 23 16 19 29 31 33 31 26 23 18 14 9 11 9 13 11 15 11 10 11 14 13 15 15 17 16 15 12 21 20 16 15 13 12 17 16 9 4 10 4 1 2 8 8 7 5 6 4 6 8 9 10 10 11 12 13 13 13 15 15 15 16 16 17 17 17 18 18 17 16 16 16 13 10 8 6 5 5 4 4 3 1 -0 -2 -3
25 26 23 32 32 32 27 24 23 17 13 17 7 3 7 8 14 14 12 5 6 13 14 13 9 11 13 16 15 15 14 15 17 16 13 11 20 8 5 8 7 2 1 6 8 8 5 2 2 3 8 8 10 12 12 13 14 14 14 13 15 15 16 16 16 17 17 17 17 17 17 15 13 12 10 8 6 4 4 3 2 2 1 0 -1 -3 -4
39 34 32 28 26 22 23 16 16 14 5 6 2 -0 6 6 6 5 6 14 14 13 14 13 12 21 19 18 14 14 13 24 19 15 12 10 19 13 4 4 1 1 3 8 6 3 2 2 1 8 9 11 12 13 13 14 14 15 15 15 15 16 16 16 16 16 15 15 14 15 15 12 10 8 7 5 3 1 1 2 1 1 0 -2 -4 -5 -4
33 28 20 23 17 13 15 3 11 7 3 7 4 -1 4 5 11 11 9 15 15 14 15 9 12 14 13 15 11 14 16 19 24 13 11 10 7 3 2 2 2 6 8 5 4 3 3 3 7 11 11 12 13 14 14 15 15 15 15 16 16 16 16 15 15 12 14 15 14 14 12 9 7 7 5 2 1 0 0 -1 0 1 -1 -4 -6 -5 -5
18 18 20 12 7 11 8 1 10 4 0 2 17 10 10 4 12 13 11 15 16 14 15 15 16 13 14 14 13 16 19 13 20 8 4 6 4 5 2 3 6 4 2 1 1 1 3 2 9 12 13 13 14 15 16 16 16 15 16 15 16 16 15 15 15 15 16 16 13 11 9 8 6 5 4 3 2 0 -2 -1 -1 -1 -4 -6 -7 -6 -6
20 12 16 5 3 7 8 2 7 3 10 16 14 15 15 15 14 13 17 15 15 14 15 14 14 14 14 14 9 11 12 11 7 6 8 6 3 3 6 8 4 0 -2 1 -1 -1 3 6 12 13 14 14 15 16 17 17 17 16 15 15 16 16 15 14 14 15 15 14 11 8 7 6 5 4 3 2 2 1 0 -1 -2 -3 -5 -7 -7 -7 -7
16 16 18 12 7 8 14 6 6 12 12 17 16 14 18 18 17 17 15 14 16 16 15 13 15 14 12 12 10 11 10 9 5 6 7 3 3 4 8 3 -0 -2 -0 -1 -2 -1 4 11 12 14 15 16 16 16 16 17 16 16 16 15 15 15 16 16 15 15 13 10 7 6 5 5 4 3 1 -0 0 1 -0 -3 -4 -5 -6 -7 -7 -7 -8
7 11 15 4 3 10 9 11 16 16 17 17 17 15 16 16 16 16 14 14 17 17 15 14 14 14 13 13 10 9 9 7 3 4 7 4 6 1 -0 -1 -1 0 0 -0 3 6 10 13 15 16 16 16 15 15 16 16 15 15 15 15 15 15 16 15 14 13 11 7 5 4 3 2 2 1 -1 -1 -2 -2 -3 -4 -5 -7 -8 -8 -8 -9 -10
19 12 10 9 11 14 14 17 17 18 17 15 15 16 16 16 16 15 13 14 17 15 16 14 14 12 10 10 7 6 4 7 2 2 5 4 2 1 -1 -2 -1 -0 4 6 10 12 12 15 14 12 12 12 11 14 15 16 16 15 14 14 14 15 15 14 14 12 9 5 3 3 2 1 -1 -1 -2 -2 -3 -4 -4 -6 -8 -8 -9 -10 -10 -10 -11
14 13 19 18 14 15 15 15 16 15 15 13 13 15 14 14 13 14 14 15 14 13 15 17 18 12 10 5 4 1 4 6 4 5 3 3 2 1 1 -0 1 3 6 8 10 15 16 15 12 10 10 10 11 14 14 15 15 13 12 12 13 14 14 14 11 9 6 4 2 1 -2 -3 -2 -2 -2 -2 -3 -5 -7 -9 -8 -9 -10 -11 -11 -12 -12
16 14 11 13 14 9 16 9 11 11 13 15 14 15 15 14 15 13 16 14 12 13 13 11 11 8 8 4 3 4 3 6 4 3 4 2 4 1 2 3 7 10 15 17 16 16 17 14 11 11 10 11 14 15 14 13 11 10 9 9 11 12 12 11 9 7 3 3 -1 3 -2 -4 -1 -3 -2 -6 -9 -10 -13 -11 -9 -9 -10 -9 -11 -13 -13
14 13 9 15 15 14 15 16 17 15 17 15 16 17 18 13 16 14 16 15 14 13 12 12 9 8 5 6 5 6 5 6 4 4 2 5 4 4 4 9 12 17 16 13 13 13 13 13 13 12 12 14 14 13 11 10 9 8 7 7 8 9 8 6 4 2 1 -1 -3 -4 -5 -5 -6 -6 -6 -9 -10 -10 -10 -9 -8 -9 -9 -9 -11 -13 -14